Location: Great Snoring
(52.8667°N, 0.8833°E)
Time: 23:33:49
(UTC+00:00)

CENTAUR R/B - Pass Details

Date: 19 May 2025
Orbit: 644 x 1537 km, 63.4° (Epoch: 18 June)

Event Time Altitude Azimuth Distance (km) Brightness Sun altitude
Rises 21:20:31 0° 300° (WNW) 3,836 7.0 -10.0°
Reaches altitude 10° 21:23:07 10° 307° (NW) 3,006 6.4 -10.3°
Maximum altitude 21:30:09 44° 19° (NNE) 1,723 4.1 -10.9°
Drops below altitude 10° 21:38:31 10° 90° (E) 3,578 5.1 -11.5°
Sets 21:41:53 0° 96° (E) 4,627 5.7 -11.8°
